Location: Flotzheim
(48.8375°N, 10.8136°E)
Time: 04:48:26
(UTC+00:00)

USA 234 - Pass Details

Date: 23 January 2021
Orbit: 1100 x 1107 km, 123.0° (Epoch: 25 February)

Event Time Altitude Azimuth Distance (km) Brightness Sun altitude
Exits shadow 16:26:35 - 66° (ENE) 3,381 5.1 -4.7°
Reaches altitude 10° 16:27:43 10° 63° (ENE) 2,965 4.8 -4.9°
Maximum altitude 16:33:51 45° 353° (N) 1,468 3.9 -5.8°
Drops below altitude 10° 16:40:00 10° 284° (WNW) 2,967 6.5 -6.7°
Sets 16:42:35 0° 278° (W) 3,926 7.4 -7.1°
